Flag for United Kingdom Weather past 2 weeks in Slough, England, United Kingdom

Now
66 °F

Passing clouds.


Feels Like: 66 °F
Forecast: 46 / 59 °F
Wind: 9 mph from West

Location: London City Airport

Current Time: May 24, 2015 at 12:39:05 PM

Latest Report: May 24, 2015 at 12:20 PM


Visibility: N/A

Pressure: 30.09 "Hg

Humidity: 49%

Dew point: 46 °F

Location of SloughLocation

Historic Weather in Slough — Graph

°F

Slough temperature yesterday

Maximum temperature yesterday: 64 °F (at 12:20 AM)
Minimum temperature yesterday: 54 °F (at 9:20 PM)
Average temperature yesterday: 58 °F

Past Weeks' High & Low Weather Summary

 TemperatureHumidityPressure
High72 °F (May 11, 1:50 PM)94% (May 10, 4:50 AM)30.36 "Hg (May 10, 4:50 AM)
Low45 °F (May 20, 4:20 AM)24% (May 21, 6:20 PM)29.56 "Hg (May 18, 1:50 PM)
Average57 °F63%30.08 "Hg
* Reported May 9 11:20 AM — May 24 11:20 AM, Slough, Weather by CustomWeather, © 2015

Note: Actual official high and low records may vary slightly from our data, if they occured in-between our weather recording intervals... More about our weather records

Advertising

Slough weather history for previous 24 hours

 ConditionsComfort  
Time TempWeatherWind HumidityBarometerVisibility
11:20 AM
Sun, May 24
66 °FMild.9 mph49%30.09 "HgN/A
10:50 AM64 °FMild.10 mph52%30.09 "HgN/A
10:20 AM64 °FMild.12 mph52%30.12 "HgN/A
9:50 AM63 °FMild.10 mph56%30.12 "HgN/A
9:20 AM61 °FRefreshingly cool.10 mph59%30.12 "HgN/A
8:50 AM59 °FRefreshingly cool.7 mph59%30.12 "HgN/A
8:20 AM57 °FCool.8 mph63%30.12 "HgN/A
7:50 AM57 °FPassing clouds.8 mph63%30.15 "HgN/A
7:20 AM55 °FCool.7 mph67%30.15 "HgN/A
6:50 AM55 °FPassing clouds.6 mph63%30.15 "HgN/A
6:20 AM55 °FBroken clouds.5 mph63%30.15 "HgN/A
5:50 AM55 °FOvercast.6 mph63%30.15 "HgN/A
5:20 AM54 °FOvercast.5 mph67%30.15 "HgN/A
4:50 AM54 °FOvercast.3 mph63%30.15 "HgN/A
4:20 AM54 °FOvercast.5 mph63%30.15 "HgN/A
3:50 AM54 °FPassing clouds.3 mph63%30.18 "HgN/A
3:20 AM54 °FPassing clouds.5 mph63%30.18 "HgN/A
2:50 AM54 °FPassing clouds.3 mph63%30.18 "HgN/A
2:20 AM54 °FPassing clouds.5 mph67%30.18 "HgN/A
1:50 AM54 °FPassing clouds.3 mph67%30.21 "HgN/A
1:20 AM54 °FCool.6 mph67%30.21 "HgN/A
12:50 AM54 °FPassing clouds.5 mph67%30.21 "HgN/A
12:20 AM54 °FPassing clouds.5 mph67%30.24 "HgN/A
11:50 PM
Sat, May 23
54 °FPassing clouds.6 mph72%30.24 "HgN/A
11:20 PM54 °FPassing clouds.6 mph67%30.24 "HgN/A
10:50 PM54 °FPassing clouds.7 mph67%30.24 "HgN/A
10:20 PM54 °FPassing clouds.7 mph72%30.24 "HgN/A
9:50 PM54 °FScattered clouds.8 mph67%30.24 "HgN/A
9:20 PM54 °FCool.9 mph67%30.24 "HgN/A
8:50 PM55 °FCool.9 mph63%30.24 "HgN/A
8:20 PM55 °FCool.10 mph63%30.24 "HgN/A
7:50 PM57 °FCool.9 mph63%30.24 "HgN/A
7:20 PM57 °FRefreshingly cool.10 mph59%30.24 "HgN/A
6:50 PM57 °FScattered clouds.9 mph63%30.24 "HgN/A
6:20 PM59 °FPartly sunny.10 mph55%30.24 "HgN/A
5:50 PM59 °FPartly sunny.10 mph55%30.24 "HgN/A
5:20 PM59 °FScattered clouds.12 mph55%30.24 "HgN/A
4:50 PM59 °FOvercast.10 mph51%30.24 "HgN/A
4:20 PM59 °FOvercast.12 mph48%30.27 "HgN/A
3:50 PM59 °FOvercast.13 mph45%30.27 "HgN/A
3:20 PM59 °FOvercast.12 mph51%30.27 "HgN/A
2:50 PM59 °FOvercast.13 mph48%30.27 "HgN/A
2:20 PM59 °FOvercast.13 mph59%30.27 "HgN/A
1:50 PM57 °FBroken clouds.14 mph63%30.27 "HgN/A
1:20 PM55 °FSprinkles. Overcast.13 mph88%30.27 "Hg6 mi
12:50 PM55 °FSprinkles. Broken clouds.15 mph88%30.27 "Hg5 mi
12:20 PM57 °FPartly sunny.15 mph82%30.27 "HgN/A
Weather by CustomWeather, © 2015

See weather overviewHow to use our weather pages